Winston-Salem, NC

4:49 AM EDT on October 17, 2017 (GMT -0400)
Smith Reynolds

Weather History for KINT - February, 2014

Change the Weather History Date:

Sunday, February 23, 2014

  Actual Average Record
Temperature  
Mean Temperature 52 °F -  
Max Temperature 68 °F 51 °F 72 °F (2017)
Min Temperature 37 °F 33 °F 8 °F (1968)
Degree Days  
Heating Degree Days 12    
Growing Degree Days 2 (Base 50)    
Moisture  
Dew Point 28 °F    
Average Humidity 40    
Maximum Humidity 70    
Minimum Humidity 18    
Precipitation  
Precipitation 0.00 in - - ()
Sea Level Pressure  
Sea Level Pressure 29.99 in    
Wind  
Wind Speed 4 mph (SW)    
Max Wind Speed 10 mph    
Max Gust Speed 16 mph    
Visibility 10 miles    
Events      
Averages and records for this station are not official NWS values.
T = Trace of Precipitation, MM = Missing Value Source: NWS Daily Summary

Daily Weather History Graph

Daily Weather History Graph

Search for Another Location

Airport or City:

Trip Planner

Search our weather history database for the weather conditions in past years. The results will help you decide how hot, cold, wet, or windy it might be!

Date:

Astronomy

Feb. 23, 2014 Rise Set
Actual Time 6:58 AM EST 6:10 PM EST
Civil Twilight 6:32 AM EST 6:36 PM EST
Nautical Twilight 6:03 AM EST 7:05 PM EST
Astronomical Twilight 5:33 AM EST 7:35 PM EST
Moon 1:50 AM EST (2/23) 12:16 PM EST (2/23)
Length of Visible Light 12h 03m
Length of Day
11h 11m
Last Quarter, 39% of the Moon is Illuminated
Feb 23
Last Quarter
Mar 1
New
Mar 8
First Quarter
Mar 16
Full
Mar 23
Last Quarter

Hourly Weather History & Observations

Time (EST) Temp. Dew Point Humidity Pressure Visibility Wind Dir Wind Speed Gust Speed Precip Events Conditions
12:54 AM 50.0 °F 24.1 °F 36% 30.09 in 10.0 mi SSW 5.8 mph - N/A   Clear
1:54 AM 46.9 °F 24.1 °F 41% 30.08 in 10.0 mi WSW 3.5 mph - N/A   Clear
2:54 AM 45.0 °F 24.1 °F 44% 30.07 in 10.0 mi Calm Calm - N/A   Clear
3:54 AM 41.0 °F 25.0 °F 53% 30.07 in 10.0 mi Calm Calm - N/A   Clear
4:54 AM 37.9 °F 25.0 °F 60% 30.07 in 10.0 mi Calm Calm - N/A   Clear
5:54 AM 39.0 °F 27.0 °F 62% 30.08 in 10.0 mi Calm Calm - N/A   Clear
6:54 AM 37.0 °F 27.0 °F 67% 30.08 in 10.0 mi Calm Calm - N/A   Clear
7:54 AM 37.9 °F 28.9 °F 70% 30.09 in 10.0 mi Calm Calm - N/A   Clear
8:54 AM 46.9 °F 28.9 °F 50% 30.08 in 10.0 mi Calm Calm - N/A   Clear
9:54 AM 53.1 °F 28.0 °F 38% 30.06 in 10.0 mi South 3.5 mph - N/A   Clear
10:54 AM 55.9 °F 28.9 °F 36% 30.03 in 10.0 mi SSW 4.6 mph - N/A   Clear
11:54 AM 60.1 °F 28.9 °F 31% 30.01 in 10.0 mi WSW 10.4 mph - N/A   Clear
12:54 PM 64.0 °F 28.0 °F 26% 29.99 in 10.0 mi WSW 8.1 mph 16.1 mph N/A   Clear
1:54 PM 64.9 °F 28.0 °F 25% 29.95 in 10.0 mi SW 9.2 mph - N/A   Clear
2:54 PM 68.0 °F 23.0 °F 18% 29.93 in 10.0 mi Variable 6.9 mph - N/A   Clear
3:54 PM 68.0 °F 24.1 °F 19% 29.91 in 10.0 mi SSW 9.2 mph 16.1 mph N/A   Clear
4:54 PM 66.9 °F 24.1 °F 20% 29.90 in 10.0 mi SW 6.9 mph 16.1 mph N/A   Clear
5:54 PM 64.9 °F 26.1 °F 23% 29.89 in 10.0 mi SSW 4.6 mph - N/A   Clear
6:54 PM 62.1 °F 28.0 °F 28% 29.90 in 10.0 mi Variable 4.6 mph - N/A   Clear
7:54 PM 60.1 °F 30.0 °F 32% 29.90 in 10.0 mi SSW 4.6 mph - N/A   Clear
8:54 PM 59.0 °F 32.0 °F 36% 29.90 in 10.0 mi Variable 4.6 mph - N/A   Clear
9:54 PM 57.0 °F 33.1 °F 40% 29.89 in 10.0 mi SSW 5.8 mph - N/A   Clear
10:54 PM 55.9 °F 34.0 °F 44% 29.88 in 10.0 mi SW 5.8 mph - N/A   Clear
11:54 PM 54.0 °F 35.1 °F 49% 29.88 in 10.0 mi SW 6.9 mph - N/A   Clear